www.pogodaiklimat.ru

Погода и климат >> Архив погоды >> Австралия >> Западная Австралия >> Порт-Хедленд Apardoo


ПОГОДА в Порт-Хедленде Apardoo

  • Прогноз погоды в Порт-Хедленде Apardoo
  • Монитор погоды в Порт-Хедленде Apardoo

АРХИВ ПОГОДЫ в Порт-Хедленде Apardoo

Время (UTC), дата Ветер
(напр.,м/с)
 
Видим.   Явления Облачность Т
(С)
Тd
(С)
f
(%)
Тe
(С)
Тes
(С)
Комфортность P
(гПа)
Po
(гПа)
Тmin
(С)
Tmax
(С)
R
(мм)
R24
(мм)
S
(см)
07 12.05 С 5 н/о н/о +26.2 +5.7 27 +26 +26 жарко 1016.0 1015.2
09 12.05 С 4 н/о н/о +23.9 +7.5 35 +24 +24 комфорт 1016.6 1015.8
10 12.05 СЗ 3 н/о н/о +19.7 +9.6 52 +21 +21 комфорт 1017.1 1016.3
12 12.05 З 2 н/о н/о +18.1 +9.2 56 +19 +19 1018.2 1017.4
13 12.05 ЮЗ 3 н/о н/о +15.9 +9.6 66 +15 +15 1018.6 1017.7 +28.7
15 12.05 ЮЗ 3 н/о н/о +15.9 +9.1 64 +16 +16 1017.8 1017.0
16 12.05 ЮЗ 3 н/о н/о +14.9 +8.8 67 +14 +14 1017.7 1016.9
18 12.05 Ю 2 н/о н/о +11.7 +7.6 76 +11 +11 1017.3 1016.5
19 12.05 Ю 2 н/о н/о +12.2 +5.4 63 +12 +12 1017.0 1016.2
21 12.05 В 3 н/о н/о +11.9 +3.2 55 +11 +11 1017.4 1016.6
22 12.05 ЮВ 4 н/о н/о +13.9 +1.2 42 +13 +13 1017.8 1017.0
00 13.05 В 5 н/о н/о +19.4 +0.4 28 +19 +19 1019.0 1018.1
01 13.05 В 7 н/о н/о +24.3 -0.1 20 +23 +23 комфорт 1019.1 1018.2 +11.6
03 13.05 В 8 н/о н/о +28.2 -0.9 15 +26 +26 жарко 1018.3 1017.5
04 13.05 В 6 н/о н/о +28.3 -2.7 13 +25 +25 комфорт 1017.2 1016.4
06 13.05 С 5 н/о н/о +28.2 +6.3 25 +27 +27 жарко 1015.7 1014.9
07 13.05 С 6 н/о н/о +26.4 +7.4 30 +26 +26 жарко 1015.7 1014.9
09 13.05 С 4 н/о н/о +24.6 +10.8 42 +26 +26 жарко 1016.1 1015.3
10 13.05 С 2 н/о н/о +20.6 +12.1 58 +23 +23 комфорт 1016.8 1016.0
12 13.05 Ю 3 н/о н/о +18.3 +12.5 69 +19 +19 1017.5 1016.7
13 13.05 Ю 3 н/о н/о +16.9 +11.2 69 +17 +17 1018.0 1017.2 +30.1
15 13.05 Ю 3 н/о н/о +15.0 +9.6 70 +14 +14 1017.9 1017.1
16 13.05 Ю 3 н/о н/о +14.4 +9.6 73 +14 +14 1017.7 1016.9
18 13.05 Ю 4 н/о н/о +13.9 +6.5 61 +13 +13 1017.0 1016.2
19 13.05 ЮВ 4 н/о н/о +12.3 +5.0 61 +11 +11 1016.7 1015.9
21 13.05 ЮВ 4 н/о н/о +14.5 +1.8 42 +13 +13 1017.1 1016.3
22 13.05 ЮВ 4 н/о н/о +15.2 +0.6 37 +14 +14 1017.4 1016.6
00 14.05 ЮВ 7 н/о н/о +21.8 -2.1 20 +21 +21 комфорт 1018.6 1017.7
01 14.05 В 8 н/о н/о +25.2 -4.2 14 +23 +23 комфорт 1018.6 1017.7 +12.1
03 14.05 В 10 н/о н/о +29.4 -4.1 11 +26 +26 жарко 1017.8 1017.0
04 14.05 В 8 н/о н/о +30.1 -2.4 12 +27 +27 жарко 1016.8 1016.0
06 14.05 СВ 5 н/о н/о +31.3 -0.4 13 +28 +28 жарко 1015.3 1014.5
07 14.05 С 4 н/о н/о +29.9 +3.8 19 +28 +28 жарко 1015.0 1014.2
09 14.05 С 3 н/о н/о +27.0 +6.4 27 +26 +26 жарко 1015.5 1014.7
10 14.05 СЗ 3 н/о н/о +22.3 +8.8 42 +24 +24 комфорт 1016.1 1015.3
12 14.05 Ю 3 н/о н/о +19.5 +9.7 53 +21 +21 комфорт 1017.2 1016.4
13 14.05 Ю 3 н/о н/о +18.8 +8.7 52 +19 +19 1017.5 1016.7 +31.9
15 14.05 Ю 3 н/о н/о +16.6 +8.6 59 +16 +16 1017.3 1016.5
16 14.05 Ю 3 н/о н/о +15.9 +7.7 58 +15 +15 1017.2 1016.4
18 14.05 ЮВ 3 н/о н/о +15.4 +5.0 50 +15 +15 1017.0 1016.2
19 14.05 ЮВ 3 н/о н/о +15.5 +4.3 47 +15 +15 1016.7 1015.9
21 14.05 Ю 2 н/о н/о +14.3 +4.9 53 +14 +14 1016.7 1015.9
22 14.05 Ю 2 н/о н/о +13.1 +4.8 57 +13 +13 1017.3 1016.5
00 15.05 ЮВ 4 н/о н/о +23.1 +0.2 22 +22 +22 комфорт 1018.2 1017.4
01 15.05 В 8 н/о н/о +26.7 -3.0 14 +24 +24 комфорт 1018.4 1017.6 +12.3
03 15.05 СВ 6 н/о н/о +30.5 +2.7 17 +28 +28 жарко 1017.3 1016.5
04 15.05 СВ 6 н/о н/о +31.2 +4.1 18 +29 +29 жарко 1016.4 1015.6
06 15.05 С 6 н/о н/о +30.7 +10.1 28 +30 +30 жарко 1014.9 1014.1
07 15.05 С 6 н/о н/о +30.1 +11.1 31 +30 +30 жарко 1014.8 1014.0
09 15.05 С 5 н/о н/о +28.4 +8.7 29 +28 +28 жарко 1015.0 1014.2
10 15.05 С 3 н/о н/о +23.1 +12.4 51 +26 +26 жарко 1015.4 1014.6
12 15.05 Ю 2 н/о н/о +20.5 +12.0 58 +23 +23 комфорт 1016.4 1015.6
13 15.05 Ю 3 н/о н/о +19.8 +11.8 60 +22 +22 комфорт 1016.8 1016.0 +32.8
15 15.05 Ю 4 н/о н/о +18.5 +10.3 59 +19 +19 1016.5 1015.7
16 15.05 Ю 4 н/о н/о +18.3 +9.9 58 +19 +19 1016.0 1015.2
18 15.05 Ю 3 н/о н/о +16.5 +10.4 67 +16 +16 1015.3 1014.5
19 15.05 Ю 4 н/о н/о +16.7 +9.6 63 +16 +16 1015.4 1014.6
21 15.05 Ю 3 н/о н/о +15.9 +7.9 59 +15 +15 1015.7 1014.9
22 15.05 Ю 4 н/о н/о +15.3 +8.1 62 +15 +15 1016.1 1015.3
00 16.05 Ю 3 н/о н/о +21.4 +6.5 38 +22 +22 комфорт 1016.9 1016.1
01 16.05 В 5 н/о н/о +27.3 +1.7 19 +25 +25 комфорт 1016.9 1016.1 +15.2
03 16.05 СВ 6 н/о н/о +30.6 +3.6 18 +28 +28 жарко 1016.0 1015.2
04 16.05 СВ 5 н/о н/о +31.6 +4.4 18 +29 +29 жарко 1015.2 1014.4
06 16.05 С 5 н/о н/о +31.6 +6.6 21 +30 +30 жарко 1013.7 1012.9
07 16.05 С 5 н/о н/о +30.9 +8.6 25 +30 +30 жарко 1013.5 1012.7
09 16.05 С 4 н/о н/о +27.6 +10.8 35 +28 +28 жарко 1013.9 1013.1
10 16.05 С 3 н/о н/о +22.7 +12.3 52 +25 +25 комфорт 1014.4 1013.6
12 16.05 СЗ 2 н/о н/о +20.8 +14.2 66 +24 +24 комфорт 1015.5 1014.7
13 16.05 СЗ 1 н/о н/о +19.5 +13.2 67 +22 +22 комфорт 1015.8 1015.0 +33.0
15 16.05 Ю 2 н/о н/о +17.2 +11.9 71 +18 +18 1015.4 1014.6
16 16.05 Ю 3 н/о н/о +16.8 +11.1 69 +17 +17 1015.1 1014.3
18 16.05 ЮЗ 5 н/о н/о +18.5 +10.6 60 +19 +19 1014.5 1013.7
19 16.05 Ю 5 н/о н/о +18.6 +8.8 53 +19 +19 1014.2 1013.4
21 16.05 Ю 3 н/о н/о +16.0 +9.2 64 +16 +16 1013.9 1013.1
22 16.05 Ю 3 н/о н/о +15.6 +8.8 64 +15 +15 1014.1 1013.3
00 17.05 Ю 3 н/о н/о +22.4 +8.1 40 +24 +24 комфорт 1014.8 1014.0
01 17.05 Ю 5 н/о н/о +27.0 +6.4 27 +26 +26 жарко 1015.0 1014.2 +15.6
03 17.05 Ю 4 н/о н/о +31.8 +5.3 19 +30 +30 жарко 1014.3 1013.5
04 17.05 ЮЗ 4 н/о н/о +33.1 +3.9 16 +30 +30 жарко 1013.3 1012.5
06 17.05 СЗ 5 н/о н/о +33.8 +3.6 15 +31 +31 жарко 1012.1 1011.3
07 17.05 С 5 н/о н/о +31.9 +12.2 30 +32 +32 жарко 1012.0 1011.2
09 17.05 С 4 н/о н/о +27.8 +14.8 45 +30 +30 жарко 1012.1 1011.3
10 17.05 СЗ 3 н/о н/о +23.0 +15.6 63 +27 +27 душно 1012.8 1012.0
12 17.05 З 3 н/о н/о +20.3 +18.1 87 +24 +24 комфорт 1013.7 1012.9
13 17.05 СЗ 3 н/о н/о +20.0 +19.2 95 +24 +24 комфорт 1014.0 1013.2 +34.7
15 17.05 ЮЗ 2 н/о н/о +18.0 +16.5 91 +19 +19 1014.2 1013.4
16 17.05 Ю 3 н/о н/о +18.1 +17.8 98 +18 +18 1014.3 1013.5
18 17.05 Ю 3 н/о н/о +16.3 +14.5 89 +16 +16 1013.8 1013.0
19 17.05 Ю 5 н/о н/о +15.5 +12.4 82 +14 +14 1014.1 1013.3
21 17.05 Ю 3 н/о н/о +16.6 +7.8 56 +16 +16 1014.1 1013.3
22 17.05 ЮВ 6 н/о н/о +20.3 +3.1 32 +20 +20 1014.6 1013.8
00 18.05 ЮВ 6 н/о н/о +23.0 +4.5 30 +23 +23 комфорт 1016.0 1015.2
01 18.05 ЮВ 8 н/о н/о +24.9 +4.6 27 +24 +24 комфорт 1016.7 1015.9 +15.4
03 18.05 В 6 н/о н/о +29.1 +6.5 24 +28 +28 жарко 1016.1 1015.3
04 18.05 В 6 н/о н/о +30.1 +5.4 21 +28 +28 жарко 1015.3 1014.5
06 18.05 СВ 5 н/о н/о +30.5 +9.4 27 +30 +30 жарко 1013.7 1012.9
07 18.05 С 5 н/о н/о +30.3 +8.7 26 +30 +30 жарко 1013.7 1012.9
09 18.05 С 3 н/о н/о +26.2 +12.3 42 +28 +28 жарко 1014.0 1013.2
10 18.05 С 2 н/о н/о +23.2 +14.5 58 +27 +27 душно 1014.6 1013.8
12 18.05 СЗ 2 н/о н/о +20.4 +14.5 69 +24 +24 комфорт 1016.0 1015.2
13 18.05 Ю 3 н/о н/о +19.7 +14.1 70 +22 +22 комфорт 1016.3 1015.5 +31.6
15 18.05 ЮВ 2 н/о н/о +17.4 +12.9 75 +18 +18 1016.5 1015.7
16 18.05 Ю 3 н/о н/о +17.3 +12.4 73 +17 +17 1016.5 1015.7
18 18.05 Ю 4 н/о н/о +16.1 +11.5 74 +15 +15 1016.5 1015.7
19 18.05 ЮВ 3 н/о н/о +17.9 +9.5 58 +18 +18 1016.5 1015.7
21 18.05 ЮВ 3 н/о н/о +16.8 +8.2 57 +17 +17 1016.2 1015.4
22 18.05 Ю 2 н/о н/о +14.6 +9.2 70 +14 +14 1016.5 1015.7
00 19.05 В 2 н/о н/о +20.3 +8.0 45 +22 +22 комфорт 1018.1 1017.3
01 19.05 ЮВ 6 н/о н/о +24.8 +4.0 26 +24 +24 комфорт 1018.4 1017.6 +13.6
03 19.05 В 4 н/о н/о +29.3 +4.7 21 +28 +28 жарко 1017.6 1016.8
04 19.05 В 4 н/о н/о +30.9 +5.3 20 +29 +29 жарко 1016.6 1015.8
06 19.05 С 3 н/о н/о +31.4 +7.1 22 +30 +30 жарко 1014.6 1013.8

 

Местоположение метеостанции Порт-Хедленд Apardoo (Западная Австралия, Австралия): широта -20.36 долгота 118.63 высота над уровнем моря 9 м.

В архиве по умолчанию представлена погода в Порт-Хедленде Apardoo за последнюю неделю. Архивные данные за месяц целиком и за предыдущие месяцы, начиная с января 2011 года, Вы можете получить, выбрав интересующий диапазон дат из раскрывающегося списка и нажав кнопку "Ввод!".


*Определитесь, кто Вы:
робот инопланетянин человек

Внимание! Время в таблицах - всемирное. Для получения местного времени необходимо прибавить поправку, которая равна 8 ч.

Смотрите также архив погоды в соседних городах и на ближайших метеорологических станциях:

Погода в Марбл-баре (Западная Австралия, Австралия) (148 км)
Погода в Роборн аэропорту (Западная Австралия, Австралия) (160 км)
Погода в Каррате (Западная Австралия, Австралия) (198 км)
Погода в Мандоре (Западная Австралия, Австралия) (242 км)
Погода в Марди (Западная Австралия, Австралия) (291 км)
Погода в Роули Шоалс (Западная Австралия, Австралия) (317 км)
Погода на Острове Варанас (Западная Австралия, Австралия) (320 км)
Погода в Параберду (Западная Австралия, Австралия) (325 км)
Погода в Барроу-Айленд (Западная Австралия, Австралия) (341 км)
Погода в Ньюмане (Западная Австралия, Австралия) (360 км)

Пояснения к столбцам:

Ветер - указаны скорость ветра в м/с - средняя за 10 мин, порывы в срок и между сроками (в фигурных скобках) и направление, откуда дует ветер: С - северный, СВ - северо-восточный, В - восточный, ЮВ - юго-восточный, Ю - южный, ЮЗ - юго-западный, З - западный, СЗ - северо-западный.
Видимость - горизонтальная дальность видимости в метрах или километрах. При видимости от 1 до 10 км при отсутствии осадков обычно наблюдается дымка, при ухудшении видимости до 1 км и менее - туман. В сухую погоду видимость может ухудшаться дымом, пылью или мглою.
Явления - указаны атмосферные явления, наблюдавшиеся в срок или в последний час перед сроком; фигурными скобками обозначены явления, наблюдавшиеся между сроками (за 1-3 часа до срока); квадратными скобками обозначены град или гололедные отложения с указанием их диаметра в мм.
Облачность - указаны через наклонную черту общая и нижняя облачность в баллах и высота нижней границы облаков в метрах; квадратными скобками обозначены формы облаков: Ci - перистые, Cs - перисто-слоистые, Cc - перисто-кучевые, Ac - высококучевые, As - высокослоистые, Sc - слоисто-кучевые, Ns - слоисто-дождевые, Cu - кучевые, Cb - кучево-дождевые. Подробнее классификацию облаков см. в Атласе облаков (PDF).
T - Температура воздуха - температура, измеренная на высоте 2 м над землей.
Td - Температура точки росы - температура, при понижении до которой содержащийся в воздухе водяной пар достигнет насыщения.
f - Относительная влажность воздуха - влажноcть воздуха, измеренная на высоте 2 м над землей.
Te - Эффективная температура - температура, которую ощущает одетый по сезону человек в тени. Характеристика душности погоды. При расчете учитывается влияние влажности воздуха и скорости ветра на теплоощущения человека.
Tes - Эффективная температура на солнце - температура, которую ощущает человек, с поправкой на солнечный нагрев. Характеристика знойности погоды. Зависит от высоты солнца над горизонтом, облачности и скорости ветра. Ночью, в пасмурную погоду, а также при ветре 12 м/с и более поправка равна нулю.
P - Атмосферное давление - приведенное к уровню моря атмосферное давление.
Po - Атмосферное давление - измеренное на уровне метеостанции атмосферное давление.
Tmin - Минимальная температура - минимум температуры воздуха на высоте 2 м над землей.
Tmax - Максимальная температура - максимум температуры воздуха на высоте 2 м над землей.
R - Количество осадков - Количество выпавших осадков за период времени, мм. При наведении курсора мыши на число - период времени, за который выпало указанное количество осадков.
R24 - Количество осадков - Количество выпавших осадков за 24 часа, мм.
S - Снежный покров - Высота снежного покрова, см. При наведении курсора мыши на число - состояние снежного покрова и степень покрытия местности в баллах.